ASA68 KSEA-PASI

Flight info

Callsign ASA68
Flight time 2h 2m
Altitude 36000
Route BANGR9 PANGL DUGGS FLIPS
Aircraft B737/M-SDE2E3FGHIRWXY/LB1

Departure

Time 2026-04-18 04:27
Airport Seattle–Tacoma International Airport (KSEA)

Arrival

Time 2026-04-18 06:29
Airport Sitka Rocky Gutierrez Airport (PASI)
Time Latitude Longitude Altitude Speed Heading
2026-04-18 04:05 47.44604 -122.30298 402 ft 0 kts 277°
2026-04-18 04:18 47.44602 -122.30278 402 ft 3 kts 283°
2026-04-18 04:18 47.44596 -122.30250 398 ft 3 kts 304°
2026-04-18 04:18 47.44584 -122.30232 401 ft 3 kts 349°
2026-04-18 04:19 47.44574 -122.30232 400 ft 1 kts 26°
2026-04-18 04:19 47.44583 -122.30224 400 ft 3 kts 30°
2026-04-18 04:19 47.44601 -122.30210 399 ft 3 kts 23°
2026-04-18 04:19 47.44613 -122.30206 402 ft 1 kts 12°
2026-04-18 04:22 47.44615 -122.30205 399 ft 2 kts 12°
2026-04-18 04:22 47.44639 -122.30200 402 ft 6 kts 359°
2026-04-18 04:22 47.44679 -122.30274 404 ft 14 kts 303°
2026-04-18 04:23 47.44752 -122.30402 406 ft 17 kts 310°
2026-04-18 04:23 47.44793 -122.30521 404 ft 11 kts 288°
2026-04-18 04:23 47.44780 -122.30622 404 ft 13 kts 204°
2026-04-18 04:23 47.44657 -122.30630 399 ft 21 kts 180°
2026-04-18 04:24 47.44492 -122.30632 395 ft 27 kts 180°
2026-04-18 04:24 47.44292 -122.30634 390 ft 30 kts 180°
2026-04-18 04:24 47.44068 -122.30634 384 ft 34 kts 180°
2026-04-18 04:24 47.43833 -122.30638 378 ft 27 kts 181°
2026-04-18 04:25 47.43666 -122.30635 372 ft 23 kts 175°
2026-04-18 04:25 47.43520 -122.30560 371 ft 23 kts 179°
2026-04-18 04:25 47.43364 -122.30561 368 ft 22 kts 180°
2026-04-18 04:25 47.43216 -122.30592 359 ft 21 kts 211°
2026-04-18 04:26 47.43177 -122.30750 357 ft 10 kts 280°
2026-04-18 04:26 47.43221 -122.30806 360 ft 9 kts 358°
2026-04-18 04:26 47.43341 -122.30805 364 ft 43 kts
2026-04-18 04:26 47.43897 -122.30800 379 ft 114 kts
2026-04-18 04:27 47.44888 -122.30791 461 ft 164 kts 360°
2026-04-18 04:27 47.46060 -122.30803 1171 ft 171 kts 359°
2026-04-18 04:27 47.47256 -122.30794 2064 ft 172 kts
2026-04-18 04:27 47.48501 -122.30763 2663 ft 192 kts
2026-04-18 04:28 47.49945 -122.30718 2919 ft 222 kts
2026-04-18 04:28 47.51591 -122.30780 3200 ft 250 kts 359°
2026-04-18 04:28 47.53373 -122.30880 3887 ft 263 kts 358°
2026-04-18 04:28 47.55218 -122.31084 4782 ft 270 kts 346°
2026-04-18 04:29 47.56910 -122.32309 5707 ft 274 kts 324°
2026-04-18 04:29 47.58499 -122.33936 6626 ft 281 kts 323°
2026-04-18 04:29 47.60046 -122.35739 7494 ft 284 kts 308°
2026-04-18 04:29 47.60995 -122.38258 8482 ft 279 kts 284°
2026-04-18 04:30 47.61392 -122.41072 9452 ft 280 kts 278°
2026-04-18 04:30 47.61705 -122.43904 10323 ft 285 kts 278°
2026-04-18 04:30 47.62032 -122.46915 10650 ft 309 kts 277°
2026-04-18 04:30 47.62271 -122.50240 11031 ft 328 kts 274°
2026-04-18 04:31 47.62442 -122.53645 11784 ft 333 kts 273°
2026-04-18 04:31 47.62602 -122.57034 12636 ft 336 kts 273°
2026-04-18 04:31 47.62771 -122.60513 13507 ft 339 kts 273°
2026-04-18 04:31 47.62949 -122.64018 14333 ft 343 kts 273°
2026-04-18 04:32 47.63134 -122.67568 15146 ft 346 kts 273°
2026-04-18 04:32 47.63322 -122.71140 16002 ft 349 kts 273°
2026-04-18 04:32 47.63513 -122.74745 16854 ft 352 kts 273°
2026-04-18 04:32 47.63706 -122.78376 17754 ft 353 kts 274°
2026-04-18 04:33 47.63898 -122.82016 18621 ft 356 kts 274°
2026-04-18 04:33 47.64090 -122.85688 19325 ft 359 kts 274°
2026-04-18 04:33 47.64397 -122.89371 20032 ft 363 kts 285°
2026-04-18 04:33 47.65429 -122.92811 20771 ft 367 kts 302°
2026-04-18 04:34 47.67087 -122.95723 21536 ft 371 kts 312°
2026-04-18 04:34 47.68894 -122.98412 22250 ft 374 kts 313°
2026-04-18 04:34 47.70770 -123.01113 22928 ft 378 kts 314°
2026-04-18 04:34 47.72677 -123.03848 23597 ft 381 kts 313°
2026-04-18 04:35 47.74582 -123.06602 24185 ft 384 kts 313°
2026-04-18 04:35 47.76495 -123.09390 24703 ft 387 kts 313°
2026-04-18 04:35 47.78424 -123.12224 25187 ft 392 kts 313°
2026-04-18 04:35 47.80376 -123.15108 25630 ft 398 kts 313°
2026-04-18 04:36 47.82347 -123.18029 26106 ft 402 kts 313°
2026-04-18 04:36 47.84338 -123.20988 26599 ft 406 kts 313°
2026-04-18 04:36 47.86345 -123.23975 27085 ft 410 kts 313°
2026-04-18 04:36 47.88369 -123.26992 27553 ft 414 kts 313°
2026-04-18 04:37 47.90419 -123.30049 28006 ft 418 kts 313°
2026-04-18 04:37 47.92484 -123.33133 28443 ft 422 kts 313°
2026-04-18 04:37 47.93861 -123.35192 28719 ft 425 kts 313°
2026-04-18 04:37 47.96666 -123.39390 29244 ft 431 kts 313°
2026-04-18 04:38 47.98074 -123.41499 29491 ft 434 kts 313°
2026-04-18 04:38 48.00212 -123.44706 29892 ft 437 kts 313°
2026-04-18 04:38 48.02367 -123.47942 30282 ft 441 kts 313°
2026-04-18 04:38 48.04529 -123.51193 30727 ft 441 kts 313°
2026-04-18 04:39 48.06681 -123.54431 31283 ft 437 kts 313°
2026-04-18 04:39 48.08815 -123.57649 31854 ft 434 kts 313°
2026-04-18 04:39 48.10939 -123.60853 32327 ft 433 kts 313°
2026-04-18 04:39 48.13058 -123.64056 32729 ft 434 kts 313°
2026-04-18 04:40 48.15208 -123.67268 32982 ft 438 kts 316°
2026-04-18 04:40 48.17595 -123.70142 33372 ft 440 kts 322°
2026-04-18 04:40 48.20087 -123.72772 33892 ft 437 kts 323°
2026-04-18 04:40 48.22605 -123.75315 34347 ft 435 kts 324°
2026-04-18 04:41 48.25088 -123.77807 34670 ft 434 kts 324°
2026-04-18 04:41 48.27584 -123.80336 35029 ft 432 kts 323°
2026-04-18 04:41 48.30060 -123.82879 35442 ft 429 kts 323°
2026-04-18 04:41 48.32508 -123.85423 35850 ft 426 kts 323°
2026-04-18 04:42 48.34932 -123.87965 36212 ft 424 kts 322°
2026-04-18 04:42 48.39799 -123.93110 36247 ft 429 kts 322°
2026-04-18 04:43 48.44659 -123.98269 36233 ft 422 kts 322°
2026-04-18 04:43 48.49449 -124.03366 36259 ft 421 kts 322°
2026-04-18 04:44 48.54208 -124.08443 36252 ft 422 kts 322°
2026-04-18 04:44 48.59002 -124.13567 36252 ft 423 kts 322°
2026-04-18 04:45 48.63804 -124.18711 36246 ft 424 kts 322°
2026-04-18 04:45 48.68617 -124.23880 36260 ft 424 kts 322°
2026-04-18 04:46 48.73438 -124.29068 36245 ft 425 kts 322°
2026-04-18 04:46 48.78267 -124.34278 36248 ft 426 kts 322°
2026-04-18 04:47 48.83098 -124.39504 36236 ft 427 kts 322°
2026-04-18 04:47 48.87935 -124.44747 36251 ft 427 kts 322°
2026-04-18 04:48 48.92774 -124.50007 36248 ft 428 kts 322°
2026-04-18 04:48 48.97624 -124.55291 36250 ft 429 kts 322°
2026-04-18 04:49 49.02476 -124.60589 36249 ft 429 kts 322°
2026-04-18 04:49 49.07324 -124.65896 36253 ft 429 kts 322°
2026-04-18 04:50 49.12136 -124.71178 36254 ft 429 kts 322°
2026-04-18 04:50 49.16986 -124.76514 36253 ft 430 kts 322°
2026-04-18 04:51 49.21838 -124.81864 36253 ft 430 kts 322°
2026-04-18 04:51 49.26686 -124.87224 36246 ft 429 kts 322°
2026-04-18 04:52 49.31519 -124.92582 36252 ft 429 kts 322°
2026-04-18 04:52 49.36326 -124.97922 36245 ft 429 kts 322°
2026-04-18 04:53 49.41155 -125.03301 36252 ft 428 kts 322°
2026-04-18 04:53 49.45976 -125.08685 36254 ft 428 kts 322°
2026-04-18 04:54 49.50803 -125.14087 36247 ft 428 kts 322°
2026-04-18 04:54 49.55611 -125.19484 36262 ft 428 kts 322°
2026-04-18 04:55 49.60418 -125.24891 36249 ft 428 kts 322°
2026-04-18 04:55 49.65192 -125.30276 36244 ft 428 kts 322°
2026-04-18 04:56 49.72396 -125.38426 36247 ft 428 kts 322°
2026-04-18 04:56 49.77192 -125.43869 36248 ft 428 kts 322°
2026-04-18 04:57 49.81993 -125.49331 36242 ft 428 kts 322°
2026-04-18 04:57 49.86789 -125.54801 36249 ft 428 kts 322°
2026-04-18 04:58 49.91585 -125.60285 36244 ft 428 kts 322°
2026-04-18 04:58 49.96378 -125.65780 36243 ft 429 kts 322°
2026-04-18 04:59 50.01174 -125.71292 36248 ft 428 kts 322°
2026-04-18 04:59 50.05964 -125.76810 36245 ft 429 kts 322°
2026-04-18 05:00 50.10756 -125.82346 36239 ft 429 kts 322°
2026-04-18 05:00 50.15542 -125.87889 36241 ft 429 kts 322°
2026-04-18 05:01 50.20301 -125.93414 36237 ft 429 kts 322°
2026-04-18 05:01 50.25083 -125.98980 36239 ft 428 kts 322°
2026-04-18 05:02 50.29864 -126.04560 36237 ft 428 kts 322°
2026-04-18 05:02 50.34639 -126.10146 36237 ft 429 kts 322°
2026-04-18 05:03 50.39413 -126.15746 36232 ft 429 kts 322°
2026-04-18 05:03 50.44184 -126.21357 36243 ft 429 kts 321°
2026-04-18 05:04 50.48955 -126.26983 36230 ft 429 kts 321°
2026-04-18 05:04 50.53720 -126.32616 36226 ft 428 kts 321°
2026-04-18 05:05 50.58477 -126.38254 36227 ft 428 kts 321°
2026-04-18 05:05 50.63231 -126.43902 36221 ft 428 kts 321°
2026-04-18 05:06 50.67946 -126.49520 36220 ft 428 kts 321°
2026-04-18 05:06 50.72697 -126.55194 36219 ft 428 kts 321°
2026-04-18 05:07 50.77435 -126.60868 36216 ft 427 kts 321°
2026-04-18 05:07 50.82170 -126.66554 36222 ft 427 kts 321°
2026-04-18 05:08 50.86910 -126.72261 36217 ft 428 kts 321°
2026-04-18 05:08 50.91642 -126.77972 36213 ft 428 kts 321°
2026-04-18 05:09 50.96374 -126.83699 36204 ft 428 kts 321°
2026-04-18 05:09 51.01104 -126.89438 36214 ft 428 kts 320°
2026-04-18 05:10 51.05829 -126.95186 36222 ft 427 kts 320°
2026-04-18 05:10 51.10519 -127.00907 36216 ft 427 kts 320°
2026-04-18 05:11 51.15235 -127.06675 36205 ft 427 kts 320°
2026-04-18 05:11 51.19945 -127.12450 36211 ft 427 kts 320°
2026-04-18 05:12 51.24650 -127.18234 36222 ft 427 kts 320°
2026-04-18 05:12 51.29352 -127.24031 36214 ft 427 kts 320°
2026-04-18 05:13 51.34046 -127.29833 36210 ft 426 kts 320°
2026-04-18 05:13 51.38736 -127.35645 36211 ft 426 kts 320°
2026-04-18 05:14 51.43383 -127.41419 36220 ft 426 kts 320°
2026-04-18 05:14 51.48067 -127.47255 36216 ft 426 kts 320°
2026-04-18 05:15 51.52747 -127.53102 36215 ft 426 kts 320°
2026-04-18 05:15 51.57424 -127.58961 36211 ft 426 kts 320°
2026-04-18 05:16 51.62094 -127.64826 36219 ft 426 kts 319°
2026-04-18 05:16 51.66763 -127.70706 36219 ft 426 kts 319°
2026-04-18 05:17 51.71400 -127.76561 36205 ft 426 kts 319°
2026-04-18 05:17 51.76058 -127.82458 36215 ft 425 kts 319°
2026-04-18 05:18 51.80711 -127.88365 36208 ft 425 kts 319°
2026-04-18 05:18 51.85359 -127.94283 36214 ft 425 kts 319°
2026-04-18 05:19 51.90001 -128.00208 36208 ft 425 kts 319°
2026-04-18 05:19 51.94639 -128.06144 36211 ft 425 kts 319°
2026-04-18 05:20 51.99273 -128.12091 36212 ft 424 kts 319°
2026-04-18 05:20 52.03903 -128.18048 36228 ft 424 kts 319°
2026-04-18 05:21 52.08497 -128.23977 36215 ft 424 kts 319°
2026-04-18 05:21 52.13116 -128.29953 36211 ft 424 kts 319°
2026-04-18 05:22 52.17736 -128.35947 36212 ft 424 kts 319°
2026-04-18 05:22 52.22347 -128.41945 36210 ft 424 kts 319°
2026-04-18 05:23 52.26955 -128.47957 36208 ft 424 kts 319°
2026-04-18 05:23 52.31555 -128.53974 36210 ft 424 kts 319°
2026-04-18 05:24 52.36156 -128.60008 36206 ft 424 kts 318°
2026-04-18 05:24 52.40751 -128.66052 36208 ft 423 kts 318°
2026-04-18 05:25 52.45340 -128.72105 36216 ft 424 kts 318°
2026-04-18 05:25 52.49931 -128.78177 36205 ft 424 kts 318°
2026-04-18 05:26 52.53744 -128.83233 36205 ft 424 kts 318°
2026-04-18 05:26 52.59084 -128.90333 36202 ft 424 kts 318°
2026-04-18 05:27 52.63668 -128.96446 36194 ft 424 kts 318°
2026-04-18 05:27 52.67477 -129.01539 36204 ft 424 kts 318°
2026-04-18 05:28 52.72055 -129.07676 36205 ft 424 kts 318°
2026-04-18 05:28 52.76633 -129.13829 36202 ft 424 kts 318°
2026-04-18 05:29 52.81206 -129.19994 36199 ft 424 kts 318°
2026-04-18 05:29 52.85779 -129.26175 36211 ft 424 kts 317°
2026-04-18 05:30 52.90343 -129.32363 36198 ft 424 kts 317°
2026-04-18 05:30 52.94908 -129.38569 36194 ft 424 kts 317°
2026-04-18 05:31 52.99472 -129.44790 36190 ft 424 kts 317°
2026-04-18 05:31 53.04032 -129.51021 36188 ft 424 kts 317°
2026-04-18 05:32 53.08611 -129.57220 36193 ft 425 kts 318°
2026-04-18 05:32 53.13168 -129.63373 36187 ft 425 kts 318°
2026-04-18 05:33 53.17751 -129.69585 36189 ft 425 kts 318°
2026-04-18 05:33 53.22330 -129.75814 36185 ft 425 kts 317°
2026-04-18 05:34 53.26910 -129.82067 36196 ft 424 kts 317°
2026-04-18 05:34 53.31483 -129.88329 36183 ft 425 kts 317°
2026-04-18 05:35 53.36053 -129.94605 36187 ft 425 kts 317°
2026-04-18 05:35 53.40618 -130.00891 36177 ft 425 kts 317°
2026-04-18 05:36 53.45183 -130.07195 36195 ft 425 kts 317°
2026-04-18 05:36 53.49744 -130.13513 36185 ft 425 kts 317°
2026-04-18 05:37 53.54303 -130.19846 36186 ft 425 kts 317°
2026-04-18 05:37 53.58855 -130.26186 36180 ft 425 kts 317°
2026-04-18 05:38 53.63404 -130.32541 36176 ft 425 kts 317°
2026-04-18 05:38 53.67949 -130.38910 36175 ft 424 kts 317°
2026-04-18 05:39 53.72458 -130.45245 36160 ft 425 kts 317°
2026-04-18 05:39 53.76991 -130.51634 36148 ft 424 kts 317°
2026-04-18 05:40 53.81521 -130.58037 36153 ft 424 kts 317°
2026-04-18 05:40 53.86053 -130.64460 36150 ft 424 kts 317°
2026-04-18 05:41 53.90578 -130.70893 36167 ft 424 kts 316°
2026-04-18 05:41 53.95094 -130.77333 36158 ft 424 kts 316°
2026-04-18 05:42 53.99611 -130.83792 36156 ft 424 kts 316°
2026-04-18 05:42 54.04124 -130.90264 36156 ft 424 kts 316°
2026-04-18 05:43 54.08630 -130.96746 36155 ft 424 kts 316°
2026-04-18 05:43 54.13139 -131.03250 36166 ft 424 kts 316°
2026-04-18 05:44 54.17610 -131.09721 36173 ft 424 kts 316°
2026-04-18 05:44 54.22111 -131.16253 36173 ft 424 kts 316°
2026-04-18 05:45 54.26605 -131.22794 36173 ft 424 kts 316°
2026-04-18 05:45 54.31099 -131.29354 36174 ft 424 kts 316°
2026-04-18 05:46 54.35585 -131.35923 36167 ft 424 kts 316°
2026-04-18 05:46 54.40072 -131.42512 36166 ft 424 kts 316°
2026-04-18 05:47 54.44553 -131.49113 36165 ft 424 kts 316°
2026-04-18 05:47 54.49032 -131.55729 36167 ft 424 kts 316°
2026-04-18 05:48 54.53507 -131.62360 36165 ft 425 kts 316°
2026-04-18 05:48 54.57979 -131.69008 36162 ft 424 kts 316°
2026-04-18 05:49 54.62425 -131.75635 36157 ft 424 kts 316°
2026-04-18 05:49 54.66887 -131.82306 36158 ft 424 kts 316°
2026-04-18 05:50 54.71341 -131.88987 36149 ft 424 kts 316°
2026-04-18 05:50 54.75787 -131.95674 36151 ft 424 kts 316°
2026-04-18 05:51 54.80235 -132.02387 36153 ft 424 kts 316°
2026-04-18 05:51 54.84676 -132.09108 36134 ft 424 kts 315°
2026-04-18 05:52 54.89118 -132.15851 36158 ft 423 kts 315°
2026-04-18 05:52 54.93519 -132.22552 36163 ft 424 kts 315°
2026-04-18 05:53 54.97951 -132.29321 36148 ft 424 kts 315°
2026-04-18 05:53 55.02382 -132.36109 36133 ft 424 kts 315°
2026-04-18 05:54 55.06800 -132.42899 36148 ft 423 kts 315°
2026-04-18 05:54 55.11221 -132.49713 36153 ft 424 kts 315°
2026-04-18 05:55 55.15635 -132.56537 36160 ft 424 kts 315°
2026-04-18 05:55 55.20050 -132.63385 36150 ft 424 kts 315°
2026-04-18 05:56 55.24429 -132.70198 36149 ft 424 kts 315°
2026-04-18 05:56 55.28836 -132.77074 36145 ft 424 kts 315°
2026-04-18 05:57 55.33249 -132.83984 35644 ft 429 kts 315°
2026-04-18 05:57 55.35472 -132.87472 35117 ft 427 kts 315°
2026-04-18 05:57 55.37680 -132.90940 34673 ft 423 kts 315°
2026-04-18 05:58 55.39868 -132.94382 34228 ft 420 kts 315°
2026-04-18 05:58 55.42035 -132.97795 33713 ft 416 kts 315°
2026-04-18 05:58 55.44182 -133.01183 33222 ft 412 kts 315°
2026-04-18 05:58 55.46304 -133.04538 32780 ft 408 kts 315°
2026-04-18 05:59 55.48404 -133.07862 32337 ft 404 kts 315°
2026-04-18 05:59 55.50483 -133.11159 31898 ft 400 kts 315°
2026-04-18 05:59 55.52546 -133.14435 31475 ft 397 kts 315°
2026-04-18 05:59 55.54584 -133.17677 31055 ft 393 kts 315°
2026-04-18 06:00 55.56608 -133.20902 30659 ft 390 kts 315°
2026-04-18 06:00 55.58590 -133.24065 30265 ft 388 kts 315°
2026-04-18 06:00 55.60590 -133.27260 29783 ft 385 kts 315°
2026-04-18 06:00 55.62566 -133.30421 29324 ft 381 kts 315°
2026-04-18 06:01 55.64523 -133.33555 28896 ft 377 kts 315°
2026-04-18 06:01 55.66455 -133.36655 28452 ft 373 kts 315°
2026-04-18 06:01 55.68370 -133.39730 28014 ft 370 kts 315°
2026-04-18 06:01 55.70270 -133.42786 27595 ft 366 kts 315°
2026-04-18 06:02 55.72144 -133.45805 27159 ft 363 kts 314°
2026-04-18 06:02 55.74004 -133.48806 26738 ft 360 kts 314°
2026-04-18 06:02 55.75850 -133.51788 26320 ft 357 kts 314°
2026-04-18 06:02 55.77680 -133.54748 25910 ft 354 kts 314°
2026-04-18 06:03 55.79473 -133.57652 25503 ft 352 kts 314°
2026-04-18 06:03 55.81281 -133.60584 25084 ft 350 kts 314°
2026-04-18 06:03 55.83076 -133.63500 24676 ft 348 kts 314°
2026-04-18 06:03 55.84858 -133.66397 24273 ft 346 kts 314°
2026-04-18 06:04 55.86630 -133.69281 23866 ft 344 kts 314°
2026-04-18 06:04 55.88390 -133.72151 23417 ft 342 kts 314°
2026-04-18 06:04 55.90146 -133.75016 22943 ft 340 kts 314°
2026-04-18 06:04 55.91881 -133.77852 22512 ft 337 kts 314°
2026-04-18 06:05 55.93603 -133.80669 22105 ft 334 kts 314°
2026-04-18 06:05 55.95309 -133.83464 21682 ft 331 kts 314°
2026-04-18 06:05 55.96977 -133.86198 21282 ft 329 kts 313°
2026-04-18 06:05 55.98654 -133.88953 20894 ft 326 kts 313°
2026-04-18 06:06 56.00316 -133.91686 20489 ft 324 kts 313°
2026-04-18 06:06 56.01970 -133.94409 20085 ft 322 kts 313°
2026-04-18 06:06 56.03613 -133.97117 19686 ft 320 kts 313°
2026-04-18 06:06 56.05246 -133.99813 19293 ft 318 kts 313°
2026-04-18 06:07 56.06869 -134.02496 18902 ft 317 kts 313°
2026-04-18 06:07 56.08483 -134.05166 18513 ft 315 kts 313°
2026-04-18 06:07 56.10092 -134.07832 18070 ft 314 kts 312°
2026-04-18 06:07 56.11695 -134.10490 17634 ft 312 kts 312°
2026-04-18 06:08 56.13284 -134.13128 17212 ft 310 kts 312°
2026-04-18 06:08 56.14866 -134.15760 16733 ft 311 kts 312°
2026-04-18 06:08 56.16445 -134.18388 16328 ft 309 kts 312°
2026-04-18 06:08 56.17997 -134.20973 15922 ft 308 kts 312°
2026-04-18 06:09 56.19559 -134.23579 15544 ft 306 kts 312°
2026-04-18 06:09 56.21120 -134.26186 15137 ft 306 kts 312°
2026-04-18 06:09 56.22676 -134.28789 14738 ft 306 kts 311°
2026-04-18 06:09 56.24233 -134.31396 14323 ft 306 kts 311°
2026-04-18 06:10 56.25792 -134.34008 13912 ft 306 kts 311°
2026-04-18 06:10 56.27349 -134.36623 13461 ft 306 kts 311°
2026-04-18 06:10 56.28902 -134.39231 13044 ft 305 kts 312°
2026-04-18 06:10 56.30445 -134.41827 12639 ft 303 kts 312°
2026-04-18 06:11 56.31987 -134.44421 12231 ft 302 kts 312°
2026-04-18 06:11 56.33518 -134.47003 11833 ft 301 kts 312°
2026-04-18 06:11 56.35048 -134.49585 11429 ft 300 kts 312°
2026-04-18 06:11 56.36570 -134.52156 11032 ft 299 kts 312°
2026-04-18 06:12 56.38086 -134.54721 10632 ft 298 kts 312°
2026-04-18 06:12 56.39597 -134.57281 10253 ft 298 kts 312°
2026-04-18 06:12 56.41080 -134.59791 10083 ft 288 kts 312°
2026-04-18 06:12 56.42517 -134.62227 9731 ft 286 kts 312°
2026-04-18 06:13 56.43962 -134.64685 9356 ft 284 kts 312°
2026-04-18 06:13 56.45397 -134.67127 9008 ft 283 kts 313°
2026-04-18 06:13 56.46832 -134.69570 8631 ft 283 kts 313°
2026-04-18 06:13 56.48257 -134.71999 8245 ft 280 kts 313°
2026-04-18 06:14 56.49664 -134.74402 7943 ft 278 kts 313°
2026-04-18 06:14 56.51069 -134.76806 7574 ft 277 kts 313°
2026-04-18 06:14 56.52471 -134.79202 7241 ft 277 kts 313°
2026-04-18 06:14 56.53875 -134.81605 6905 ft 278 kts 313°
2026-04-18 06:15 56.55278 -134.84011 6544 ft 277 kts 313°
2026-04-18 06:15 56.56677 -134.86411 6217 ft 277 kts 314°
2026-04-18 06:15 56.58031 -134.88806 6048 ft 266 kts 308°
2026-04-18 06:15 56.58821 -134.90515 6021 ft 268 kts 304°
2026-04-18 06:16 56.59961 -134.93223 6029 ft 270 kts 303°
2026-04-18 06:16 56.61094 -134.95953 5991 ft 271 kts 302°
2026-04-18 06:16 56.62230 -134.98689 6019 ft 272 kts 303°
2026-04-18 06:16 56.63375 -135.01441 6019 ft 274 kts 303°
2026-04-18 06:17 56.64532 -135.04206 6029 ft 276 kts 303°
2026-04-18 06:17 56.65706 -135.06997 5993 ft 277 kts 303°
2026-04-18 06:17 56.66876 -135.09764 5999 ft 275 kts 303°
2026-04-18 06:17 56.68035 -135.12498 5988 ft 272 kts 303°
2026-04-18 06:18 56.69182 -135.15208 6002 ft 270 kts 303°
2026-04-18 06:18 56.70323 -135.17913 6016 ft 266 kts 303°
2026-04-18 06:18 56.71443 -135.20562 6017 ft 262 kts 303°
2026-04-18 06:18 56.72545 -135.23172 6017 ft 259 kts 303°
2026-04-18 06:19 56.73648 -135.25794 6011 ft 262 kts 303°
2026-04-18 06:19 56.74743 -135.28397 5993 ft 262 kts 303°
2026-04-18 06:19 56.75908 -135.30965 5974 ft 265 kts 314°
2026-04-18 06:19 56.77475 -135.32793 5828 ft 269 kts 329°
2026-04-18 06:20 56.79127 -135.34368 5645 ft 267 kts 330°
2026-04-18 06:20 56.80773 -135.35916 5485 ft 264 kts 331°
2026-04-18 06:20 56.82394 -135.37450 5314 ft 261 kts 331°
2026-04-18 06:20 56.83994 -135.38976 5151 ft 259 kts 331°
2026-04-18 06:21 56.85579 -135.40498 4980 ft 257 kts 331°
2026-04-18 06:21 56.87153 -135.42018 4824 ft 255 kts 331°
2026-04-18 06:21 56.88718 -135.43535 4667 ft 254 kts 331°
2026-04-18 06:21 56.90278 -135.45052 4500 ft 253 kts 331°
2026-04-18 06:22 56.91833 -135.46567 4353 ft 253 kts 331°
2026-04-18 06:22 56.93391 -135.48088 4192 ft 253 kts 331°
2026-04-18 06:22 56.94945 -135.49607 4033 ft 253 kts 332°
2026-04-18 06:22 56.96501 -135.51130 3892 ft 253 kts 332°
2026-04-18 06:23 56.98052 -135.52650 3738 ft 252 kts 332°
2026-04-18 06:23 56.99594 -135.54161 3585 ft 251 kts 332°
2026-04-18 06:23 57.01134 -135.55673 3433 ft 250 kts 332°
2026-04-18 06:23 57.02646 -135.57158 3277 ft 249 kts 333°
2026-04-18 06:24 57.04161 -135.58649 3116 ft 245 kts 333°
2026-04-18 06:24 57.05670 -135.60059 2942 ft 242 kts 340°
2026-04-18 06:24 57.07276 -135.60671 2782 ft 229 kts 354°
2026-04-18 06:24 57.08821 -135.60739 2585 ft 215 kts 10°
2026-04-18 06:25 57.10168 -135.59926 2516 ft 198 kts 32°
2026-04-18 06:25 57.11214 -135.58366 2495 ft 191 kts 52°
2026-04-18 06:25 57.11926 -135.56306 2346 ft 191 kts 69°
2026-04-18 06:25 57.12269 -135.53974 2226 ft 187 kts 86°
2026-04-18 06:26 57.12225 -135.51595 2047 ft 186 kts 102°
2026-04-18 06:26 57.11775 -135.49400 1825 ft 185 kts 123°
2026-04-18 06:26 57.10982 -135.47601 1567 ft 173 kts 132°
2026-04-18 06:26 57.10220 -135.46083 1454 ft 148 kts 136°
2026-04-18 06:27 57.09520 -135.44809 1226 ft 134 kts 135°
2026-04-18 06:27 57.08884 -135.43662 1045 ft 123 kts 135°
2026-04-18 06:27 57.08276 -135.42568 892 ft 123 kts 134°
2026-04-18 06:27 57.07652 -135.41442 728 ft 126 kts 134°
2026-04-18 06:28 57.07036 -135.40336 542 ft 122 kts 134°
2026-04-18 06:28 57.06427 -135.39246 355 ft 123 kts 133°
2026-04-18 06:28 57.05810 -135.38154 180 ft 124 kts 133°
2026-04-18 06:28 57.05199 -135.37031 46 ft 124 kts 133°
2026-04-18 06:29 57.04644 -135.36039 37 ft 87 kts 136°
2026-04-18 06:29 57.04358 -135.35523 35 ft 41 kts 135°
2026-04-18 06:29 57.04176 -135.35197 36 ft 32 kts 135°
2026-04-18 06:29 57.04082 -135.35050 36 ft 4 kts 124°
2026-04-18 06:30 57.04088 -135.35030 36 ft 3 kts
2026-04-18 06:30 57.04114 -135.35082 35 ft 9 kts 309°
2026-04-18 06:30 57.04184 -135.35213 37 ft 19 kts 316°
2026-04-18 06:30 57.04302 -135.35423 34 ft 28 kts 315°
2026-04-18 06:31 57.04452 -135.35695 34 ft 33 kts 315°
2026-04-18 06:31 57.04624 -135.36007 35 ft 36 kts 315°
2026-04-18 06:31 57.04777 -135.36280 36 ft 8 kts 316°
2026-04-18 06:31 57.04875 -135.36313 33 ft 19 kts 358°
2026-04-18 06:32 57.04991 -135.36385 33 ft 18 kts 317°
2026-04-18 06:32 57.05080 -135.36544 33 ft 17 kts 315°
2026-04-18 06:32 57.05154 -135.36676 32 ft 12 kts 316°
2026-04-18 06:32 57.05208 -135.36719 34 ft 7 kts 20°
2026-04-18 06:33 57.05228 -135.36657 33 ft 6 kts 72°
2026-04-18 06:33 57.05232 -135.36627 34 ft 2 kts 77°
2026-04-18 06:33 57.05235 -135.36602 34 ft 0 kts 76°